www.pogodaiklimat.ru

Погода и климат >> Архив погоды >> Россия >> Мордовия >> Краснослободск


ПОГОДА в Краснослободске

  • Прогноз погоды в Краснослободске
  • Монитор погоды в Краснослободске
  • Климат города

АРХИВ ПОГОДЫ в Краснослободске

Время (UTC), дата Ветер
(напр.,м/с)
 
Видим.   Явления Облачность Т
(С)
Тd
(С)
f
(%)
Тe
(С)
Тes
(С)
Комфортность P
(гПа)
Po
(гПа)
Тmin
(С)
Tmax
(С)
R
(мм)
R24
(мм)
S
(см)
09 17.11 З 4-6
{6}
20 км {ливн. осадки, дождь} 9/9 1000 м
[Sc]
+1.9 +0.3 89 -3 -3 1022.5 999.0
12 17.11 З 4-8
{8}
20 км {ливн. осадки, дождь} 9/9 1000 м
[Sc]
+2.0 -0.8 82 -3 -3 1023.4 999.9
15 17.11 З 4-4
{4}
10 км {ливн. осадки, снег} 9/9 1000 м
[Sc]
+0.5 -1.2 88 -5 -5 1024.2 1000.5 +2.6 0.4
18 17.11 Ю 2-4
{4}
10 км {ливн. осадки, снег} ясно +0.5 -2.1 83 -3 -3 1023.2 999.5
21 17.11 Ю 4-6
{6}
10 км 9/0
[As op]
-0.6 -3.4 81 -6 -6 1023.6 999.8
00 18.11 Ю 4-6
{6}
10 км 9/0
[As op]
-0.5 -3.3 81 -6 -6 1022.8 999.0
03 18.11 Ю 4-6
{6}
10 км 9/0
[As op]
-0.7 -2.9 85 -6 -6 1021.5 997.7 -0.8
06 18.11 ЮЗ 4-6
{6}
4000 м слабый снег 10/10 300 м
[Frnb Ns]
-0.5 -2.0 90 -6 -6 1021.8 998.0
09 18.11 З 4-6
{6}
10 км слабый снег 10/10 300 м
[Frnb Ns]
+0.6 -1.1 88 -5 -5 1021.9 998.2
12 18.11 З 2-4
{4}
10 км {снег} 10/10 300 м
[St]
+0.9 -0.8 88 -3 -3 1021.4 997.8
15 18.11 ЮЗ 2-4
{4}
10 км 10/10 300 м
[St]
+0.7 -1.0 88 -3 -3 1021.5 997.8 +1.2 0.0
18 18.11 Ю 4-6
{6}
10 км 9/9 600 м
[Sc]
+1.0 -0.7 88 -4 -4 1021.3 997.7
21 18.11 Ю 2-4
{4}
10 км слабый снег 10/10 300 м
[Frnb Ns]
+0.4 -0.5 94 -3 -3 1021.2 997.5
00 19.11 Ю 2-4
{4}
10 км {снег} 10/10 300 м
[St]
+0.6 -0.5 92 -3 -3 1020.6 997.0
03 19.11 Ю 2-4
{4}
10 км 9/9 600 м
[Sc]
+0.1 -1.0 92 -4 -4 1019.6 996.0 0.0 0.0
06 19.11 Ю 2-4
{4}
20 км 9/9 600 м
[Sc]
+0.1 -1.7 88 -4 -4 1019.2 995.6
09 19.11 Ю 2-4
{4}
20 км 9/9 600 м
[Sc]
+1.0 -1.3 85 -2 -2 1017.9 994.4
12 19.11 Ю 2-6
{6}
10 км слабая морось 10/10 300 м
[St]
+1.2 +0.1 92 -2 -2 1016.5 993.0
15 19.11 Ю 2-4
{4}
10 км слабая морось 10/10 300 м
[St]
+1.0 +0.2 94 -3 -3 1015.8 992.4 +1.5 0.4
18 19.11 Ю 2-2
{2}
10 км в посл. час снег {морось} 10/10 300 м
[St]
+0.3 -0.3 96 -3 -3 1014.6 991.2
21 19.11 Ю 2-2
{2}
10 км 9/9 600 м
[Sc]
+1.6 +1.1 96 -2 -2 1014.3 990.9
00 20.11 Ю 2-2
{2}
10 км 9/9 600 м
[Sc]
+2.9 +2.1 94 -0 -0 1012.2 989.0
03 20.11 Ю 2-2
{2}
10 км 10/10 300 м
[St]
+3.1 +2.3 94 -0 -0 1012.0 988.8 +0.2 1
06 20.11 Ю 2-4
{4}
10 км слабый дождь 10/10 300 м
[Frnb Ns]
+3.6 +2.9 95 +1 +1 1013.0 989.8
09 20.11 З 2-4
{4}
10 км слабый дождь 10/10 300 м
[Frnb Ns]
+4.1 +3.1 93 +1 +1 1013.8 990.7
12 20.11 С 2-4
{4}
10 км слабый дождь 10/10 300 м
[Frnb Ns]
+3.8 +2.8 93 +1 +1 1013.7 990.6
15 20.11 С 2-4
{4}
4000 м слабый дождь 10/10 300 м
[St]
+3.8 +2.8 93 +1 +1 1013.5 990.4 +4.4 7
18 20.11 В 4-6
{6}
10 км {дождь} 10/10 300 м
[St]
+4.5 +3.8 95 0 0 1011.3 988.2
21 20.11 -6
{6}
10 км н/о +4.7 +4.0 95 0 0 1009.0 986.1
00 21.11 ЮВ 2-4
{4}
10 км 10/10 300 м
[St]
+5.5 +4.3 92 +3 +3 1007.1 984.2
03 21.11 ЮВ 6-10
{10}
10 км 9/0
[As op]
+4.1 +2.1 87 -1 -1 1005.0 982.1 +2.3 2
06 21.11 Ю 4-8
{8}
10 км слабый дождь 10/10 300 м
[Frnb Ns]
+2.4 +0.8 89 -3 -3 1005.4 982.4 +2.3
09 21.11 ЮВ 6-10
{10}
4000 м слабый дождь 10/10 300 м
[Frnb Ns]
+2.4 +1.1 91 -4 -4 1005.2 982.2
12 21.11 ЮВ 4-6
{6}
4000 м слабый дождь 10/10 300 м
[Frnb Ns]
+3.3 +2.2 92 -1 -1 1004.6 991.7
15 21.11 ЮВ 4-6
{6}
10 км слабый дождь 10/10 300 м
[Frnb Ns]
+3.1 +2.1 93 -2 -2 1004.8 981.9 +3.5 5
18 21.11 ЮВ 2-4
{4}
10 км {дождь} 10/10 300 м
[St]
+3.0 +2.2 94 -0 -0 1004.5 981.6
21 21.11 ЮВ 2-4
{4}
10 км 10/10 300 м
[St]
+3.0 +2.0 93 -0 -0 1004.5 981.6
00 22.11 Ю 2-4
{4}
10 км 9/0
[As op]
+2.0 +0.7 91 -1 -1 1004.9 981.9
03 22.11 ЮВ 2-4
{4}
10 км 9/0
[As op]
+1.0 -0.1 92 -3 -3 1004.0 980.9 +0.9 2
06 22.11 штиль 0 10 км 9/0
[Ac trans]
+0.4 -0.5 94 -1 -1 1003.4 980.2 +0.3
09 22.11 штиль 0 10 км 9/9 1000 м
[Sc]
+1.7 +0.1 89 +1 +1 1002.9 979.8
12 22.11 В 2-2
{2}
4000 м слабая морось 10/10 300 м
[St]
+1.6 +0.5 92 -2 -2 1002.1 979.0
15 22.11 В 2-2
{2}
500 м туман {морось} ?/? +1.6 +1.1 96 -2 -2 1001.1 978.0 +2.2 0.0
18 22.11 штиль 0 500 м туман {морось} ?/? +2.1 +1.6 96 +1 +1 1003.1 980.1
21 22.11 СЗ 2-4
{4}
4000 м слабая морось {туман} 10/10 300 м
[St]
+1.2 +0.7 96 -2 -2 1003.2 980.1
00 23.11 СЗ 4-6
{6}
10 км {морось, туман} 10/10 300 м
[St]
+0.5 -0.1 96 -5 -5 1004.5 981.3
03 23.11 СЗ 4-6
{6}
10 км 10/10 300 м
[St]
-0.3 -0.9 96 -6 -6 1006.0 982.6 -0.4 0.0
06 23.11 С 4-6
{6}
10 км слабый снег 10/10 300 м
[Frnb Ns]
-1.7 -2.5 94 -8 -8 1007.5 984.0 -1.8
09 23.11 С 4-6
{6}
4000 м слабый снег 10/10 300 м
[Frnb Ns]
-2.2 -3.1 94 -8 -8 1008.8 985.2
12 23.11 С 4-6
{6}
10 км слабый снег 10/10 300 м
[Frnb Ns]
-2.3 -3.5 91 -8 -8 1011.6 987.9
15 23.11 С 4-6
{6}
10 км слабый снег 10/10 300 м
[Frnb Ns]
-2.4 -3.3 94 -9 -9 1013.9 990.2 -0.1 3
18 23.11 С 2-4
{4}
10 км {снег} 9/0
[As op]
-2.9 -3.9 93 -7 -7 1016.5 992.7
21 23.11 С 2-4
{4}
10 км 9/0
[As op]
-3.2 -4.6 90 -7 -7 1019.0 995.1
00 24.11 С 2-4
{4}
10 км 9/0
[As op]
-3.4 -5.1 88 -8 -8 1020.6 996.7
03 24.11 С 2-2
{2}
10 км 9/0
[As op]
-3.7 -5.2 89 -8 -8 1021.9 997.9 -3.8 0.2 2
06 24.11 С 2-2
{2}
20 км 9/9 1000 м
[Sc]
-3.9 -5.4 89 -8 -8 1022.9 998.8 -4.0

 

Местоположение метеостанции Краснослободск (Мордовия, Россия): широта 54.43 долгота 43.77 высота над уровнем моря 188 м.

В архиве по умолчанию представлена погода в Краснослободске за последнюю неделю. Архивные данные за месяц целиком и за предыдущие месяцы, начиная с января 2011 года, Вы можете получить, выбрав интересующий диапазон дат из раскрывающегося списка и нажав кнопку "Ввод!".

Внимание! Время в таблицах - всемирное. Для получения местного времени необходимо прибавить поправку, которая в Краснослободске равна 3 ч.

Смотрите также архив погоды в соседних городах и на ближайших метеорологических станциях:

Погода в Темникове (Мордовия, Россия) (41 км)
Погода в Торбеево (Мордовия, Россия) (52 км)
Погода в Инсаре (Мордовия, Россия) (74 км)
Погода в Лукоянове (Нижегородская область, Россия) (82 км)
Погода в Саранске (Мордовия, Россия) (102 км)
Погода в Арзамасе (Нижегородская область, Россия) (105 км)
Погода в Сасово (Рязанская область, Россия) (116 км)
Погода в Большом Болдино (Нижегородская область, Россия) (119 км)
Погода в Пачелме (Пензенская область, Россия) (126 км)
Погода в Земетчино (Пензенская область, Россия) (129 км)

Пояснения к столбцам:

Ветер - указаны скорость ветра в м/с - средняя за 10 мин, порывы в срок и между сроками (в фигурных скобках) и направление, откуда дует ветер: С - северный, СВ - северо-восточный, В - восточный, ЮВ - юго-восточный, Ю - южный, ЮЗ - юго-западный, З - западный, СЗ - северо-западный.
Видимость - горизонтальная дальность видимости в метрах или километрах. При видимости от 1 до 10 км при отсутствии осадков обычно наблюдается дымка, при ухудшении видимости до 1 км и менее - туман. В сухую погоду видимость может ухудшаться дымом, пылью или мглою.
Явления - указаны атмосферные явления, наблюдавшиеся в срок или в последний час перед сроком; фигурными скобками обозначены явления, наблюдавшиеся между сроками (за 1-3 часа до срока); квадратными скобками обозначены град или гололедные отложения с указанием их диаметра в мм.
Облачность - указаны через наклонную черту общая и нижняя облачность в баллах и высота нижней границы облаков в метрах; квадратными скобками обозначены формы облаков: Ci - перистые, Cs - перисто-слоистые, Cc - перисто-кучевые, Ac - высококучевые, As - высокослоистые, Sc - слоисто-кучевые, Ns - слоисто-дождевые, Cu - кучевые, Cb - кучево-дождевые. Подробнее классификацию облаков см. в Атласе облаков (PDF).
T - Температура воздуха - температура, измеренная на высоте 2 м над землей.
Td - Температура точки росы - температура, при понижении до которой содержащийся в воздухе водяной пар достигнет насыщения.
f - Относительная влажность воздуха - влажноcть воздуха, измеренная на высоте 2 м над землей.
Te - Эффективная температура - температура, которую ощущает одетый по сезону человек в тени. Характеристика душности погоды. При расчете учитывается влияние влажности воздуха и скорости ветра на теплоощущения человека.
Tes - Эффективная температура на солнце - температура, которую ощущает человек, с поправкой на солнечный нагрев. Характеристика знойности погоды. Зависит от высоты солнца над горизонтом, облачности и скорости ветра. Ночью, в пасмурную погоду, а также при ветре 12 м/с и более поправка равна нулю.
P - Атмосферное давление - приведенное к уровню моря атмосферное давление.
Po - Атмосферное давление - измеренное на уровне метеостанции атмосферное давление.
Tmin - Минимальная температура - минимум температуры воздуха на высоте 2 м над землей.
Tmax - Максимальная температура - максимум температуры воздуха на высоте 2 м над землей.
R - Количество осадков - Количество выпавших осадков за период времени, мм. При наведении курсора мыши на число - период времени, за который выпало указанное количество осадков.
R24 - Количество осадков - Количество выпавших осадков за 24 часа, мм.
S - Снежный покров - Высота снежного покрова, см. При наведении курсора мыши на число - состояние снежного покрова и степень покрытия местности в баллах.